Location: Krakow
(50.0830°N, 19.9170°E)
Time: 04:57:02
(UTC+02:00)

BlueWalker 3 - Visible Passes

Search period start: 12 May 2026 00:00
Search period end: 22 May 2026 00:00
Orbit: 448 x 458 km, 53.2° (Epoch: 11 May)

Date Brightness Start Highest point End Pass type
(mag) Time Alt. Az. Time Alt. Az. Time Alt. Az.
12 May 2.9 01:55:07 30° ESE 01:55:07 30° ESE 01:57:39 10° ENE visible
12 May 1.9 03:28:44 14° W 03:31:41 70° NNW 03:35:14 10° ENE visible
13 May 3.7 01:19:21 19° E 01:19:21 19° E 01:20:46 10° E visible
13 May 1.7 02:52:58 25° WSW 02:54:53 80° NNW 02:58:27 10° ENE visible
14 May 4.3 00:43:33 11° E 00:43:33 11° E 00:43:47 10° E visible
14 May 1.6 02:17:09 46° WSW 02:18:06 87° SSE 02:21:40 10° ENE visible
14 May 2.6 03:52:15 10° W 03:55:42 49° N 03:59:10 10° ENE visible
15 May 1.5 01:41:17 73° SSE 01:41:19 73° SSE 01:44:52 10° ENE visible
15 May 2.5 03:15:24 10° W 03:18:52 50° N 03:22:20 10° ENE visible
16 May 2.3 01:05:21 45° E 01:05:21 45° E 01:08:03 10° ENE visible
16 May 2.4 02:38:57 13° W 02:42:01 53° N 02:45:31 10° ENE visible
17 May 3.1 00:29:20 27° E 00:29:20 27° E 00:31:13 10° ENE visible
17 May 2.2 02:02:55 20° W 02:05:11 58° NNW 02:08:41 10° ENE visible
17 May 2.5 03:39:24 10° WNW 03:42:54 53° N 03:46:23 10° E visible
17 May 3.7 23:53:09 19° E 23:53:09 19° E 23:54:21 10° ENE visible
18 May 2.0 01:26:45 30° W 01:28:20 64° NNW 01:31:52 10° ENE visible
18 May 2.6 03:02:33 10° WNW 03:06:02 50° N 03:09:30 10° E visible
18 May 3.9 23:16:46 14° E 23:16:46 14° E 23:17:27 10° E visible
19 May 1.8 00:50:19 39° W 00:51:29 72° NNW 00:55:02 10° ENE visible
19 May 2.6 02:25:42 10° WNW 02:29:10 49° N 02:32:37 10° E visible
19 May 1.7 04:03:13 10° WNW 04:06:46 88° SSW 04:10:19 10° ESE visible
19 May 3.9 22:39:52 13° E 22:39:52 13° E 22:40:29 10° E visible
20 May 1.6 00:13:23 37° WSW 00:14:39 83° NNW 00:18:13 10° ENE visible
20 May 2.7 01:48:50 10° WNW 01:52:17 48° N 01:55:45 10° ENE visible
20 May 1.8 03:26:23 10° WNW 03:29:57 79° NNE 03:33:30 10° ESE visible
20 May 3.0 22:00:33 19° SE 22:00:49 20° SE 22:03:27 10° E visible
20 May 1.5 23:34:16 10° WSW 23:37:49 84° SSE 23:41:23 10° ENE visible
21 May 2.6 01:11:57 10° W 01:15:24 49° N 01:18:53 10° ENE visible
21 May 2.0 02:49:33 10° WNW 02:53:06 69° NNE 02:56:38 10° ESE visible
21 May 3.3 21:21:55 10° S 21:24:06 16° SE 21:26:17 10° E visible
21 May 1.5 22:57:28 10° WSW 23:01:00 70° SSE 23:04:32 10° ENE visible
